When you browse on this site, cookies collect data to enhance your experience and personalize the content and advertising you see.
Visit our Privacy Policy to learn more. By continuing to use the site, you agree to this use of cookies and data.
  • In Hungary
  • List of Countries
  • For 7 days
  • Water Temperature
  • Satellite Maps
  • Weather Map
  • News
  • Weather Widgets
  • user-avatar
    Login

    Hourly Weather Prudentopolis

    Today, 19 January, Saturday

    Time Temperature Precipitation Wind Pressure Humidity
    00:00 +20°C° 0 mm 0 mps 694 mmHg 95%
    01:00 +20°C° 0 mm 0 mps 694 mmHg 96%
    02:00 +20°C° 0 mm 0 mps 694 mmHg 96%
    03:00 +19°C° 0 mm 0 mps 694 mmHg 97%
    04:00 +19°C° 0 mm 0 mps 694 mmHg 97%
    05:00 +19°C° 0 mm 0 mps 694 mmHg 97%
    06:00 +19°C° 0 mm 0 mps 694 mmHg 97%
    07:00 +21°C° 0 mm 0 mps 694 mmHg 88%
    08:00 +25°C° 0 mm 1 mps 695 mmHg 78%
    09:00 +27°C° 0 mm 1 mps 695 mmHg 69%
    10:00 +29°C° 0.2 mm 1 mps 695 mmHg 64%
    11:00 +31°C° 0.2 mm 1 mps 695 mmHg 59%
    12:00 +32°C° 0.2 mm 1 mps 695 mmHg 55%
    13:00 +32°C° 0.7 mm 1 mps 695 mmHg 55%
    14:00 +32°C° 0.7 mm 1 mps 695 mmHg 56%
    15:00 +32°C° 0.7 mm 1 mps 694 mmHg 57%
    16:00 +30°C° 1.7 mm 1 mps 694 mmHg 69%
    17:00 +28°C° 1.7 mm 1 mps 693 mmHg 82%
    18:00 +26°C° 1.7 mm 1 mps 693 mmHg 94%
    19:00 +25°C° 0.8 mm 1 mps 693 mmHg 95%
    20:00 +24°C° 0.8 mm 1 mps 693 mmHg 96%
    21:00 +21°C° 0.8 mm 0 mps 694 mmHg 97%
    22:00 +21°C° 0.1 mm 0 mps 694 mmHg 97%
    23:00 +20°C° 0.1 mm 0 mps 694 mmHg 97%

    Tomorrow, 20 January, Sunday

    Time Temperature Precipitation Wind Pressure Humidity
    00:00 +20°C° 0.1 mm 0 mps 694 mmHg 97%
    01:00 +20°C° 0 mm 0 mps 694 mmHg 98%
    02:00 +20°C° 0 mm 0 mps 693 mmHg 98%
    03:00 +20°C° 0 mm 0 mps 693 mmHg 98%
    04:00 +19°C° 0 mm 0 mps 693 mmHg 98%
    05:00 +19°C° 0 mm 0 mps 693 mmHg 98%
    06:00 +19°C° 0 mm 0 mps 694 mmHg 99%
    07:00 +23°C° 0 mm 1 mps 694 mmHg 92%
    08:00 +24°C° 0 mm 1 mps 695 mmHg 85%
    09:00 +26°C° 0 mm 1 mps 695 mmHg 79%
    10:00 +27°C° 0.7 mm 1 mps 695 mmHg 79%
    11:00 +28°C° 0.7 mm 1 mps 695 mmHg 79%
    12:00 +29°C° 0.7 mm 1 mps 695 mmHg 80%
    13:00 +28°C° 1.2 mm 1 mps 695 mmHg 82%
    14:00 +28°C° 1.2 mm 1 mps 695 mmHg 84%
    15:00 +28°C° 1.2 mm 1 mps 694 mmHg 86%
    16:00 +28°C° 0.8 mm 1 mps 694 mmHg 83%
    17:00 +28°C° 0.8 mm 1 mps 694 mmHg 80%
    18:00 +28°C° 0.8 mm 1 mps 694 mmHg 77%
    19:00 +26°C° 0.5 mm 1 mps 694 mmHg 83%
    20:00 +23°C° 0.5 mm 0 mps 694 mmHg 89%
    21:00 +21°C° 0.5 mm 0 mps 694 mmHg 95%
    22:00 +21°C° 0.2 mm 0 mps 694 mmHg 96%
    23:00 +20°C° 0.2 mm 0 mps 695 mmHg 97%

    Day after tomorrow, 21 January, Monday

    Time Temperature Precipitation Wind Pressure Humidity
    00:00 +20°C° 0.2 mm 0 mps 695 mmHg 98%
    01:00 +20°C° 0 mm 0 mps 694 mmHg 98%
    02:00 +19°C° 0 mm 0 mps 694 mmHg 98%
    03:00 +19°C° 0 mm 0 mps 693 mmHg 99%
    04:00 +19°C° 0 mm 0 mps 694 mmHg 99%
    05:00 +19°C° 0 mm 0 mps 694 mmHg 99%
    06:00 +19°C° 0 mm 0 mps 694 mmHg 99%
    07:00 +21°C° 0 mm 0 mps 695 mmHg 92%
    08:00 +25°C° 0 mm 1 mps 695 mmHg 84%
    09:00 +27°C° 0 mm 1 mps 696 mmHg 77%
    10:00 +29°C° 0.1 mm 1 mps 696 mmHg 69%
    11:00 +30°C° 0.1 mm 2 mps 696 mmHg 61%
    12:00 +32°C° 0.1 mm 2 mps 696 mmHg 53%
    13:00 +32°C° 0.5 mm 2 mps 696 mmHg 55%
    14:00 +32°C° 0.5 mm 2 mps 695 mmHg 56%
    15:00 +32°C° 0.5 mm 2 mps 695 mmHg 58%
    16:00 +31°C° 0.6 mm 2 mps 695 mmHg 63%
    17:00 +30°C° 0.6 mm 2 mps 695 mmHg 68%
    18:00 +29°C° 0.6 mm 1 mps 695 mmHg 73%
    19:00 +27°C° 0.4 mm 1 mps 695 mmHg 80%
    20:00 +25°C° 0.4 mm 1 mps 695 mmHg 87%
    21:00 +22°C° 0.4 mm 0 mps 696 mmHg 94%
    22:00 +21°C° 0 mm 0 mps 696 mmHg 95%
    23:00 +21°C° 0 mm 0 mps 696 mmHg 96%

    22 January, Tuesday

    Time Temperature Precipitation Wind Pressure Humidity
    00:00 +21°C° 0 mm 0 mps 696 mmHg 97%
    01:00 +20°C° 0 mm 0 mps 695 mmHg 97%
    02:00 +20°C° 0 mm 0 mps 695 mmHg 98%
    03:00 +20°C° 0 mm 0 mps 694 mmHg 98%
    04:00 +20°C° 0 mm 0 mps 695 mmHg 98%
    05:00 +20°C° 0 mm 0 mps 695 mmHg 98%
    06:00 +19°C° 0 mm 0 mps 695 mmHg 98%
    07:00 +22°C° 0 mm 0 mps 696 mmHg 88%
    08:00 +24°C° 0 mm 0 mps 697 mmHg 77%
    09:00 +29°C° 0 mm 1 mps 697 mmHg 67%
    10:00 +31°C° 0 mm 1 mps 697 mmHg 59%
    11:00 +33°C° 0 mm 1 mps 697 mmHg 50%
    12:00 +35°C° 0 mm 1 mps 697 mmHg 42%
    13:00 +34°C° 0.5 mm 1 mps 696 mmHg 47%
    14:00 +33°C° 0.5 mm 1 mps 696 mmHg 51%
    15:00 +32°C° 0.5 mm 1 mps 695 mmHg 55%
    16:00 +31°C° 1.2 mm 1 mps 695 mmHg 65%
    17:00 +29°C° 1.2 mm 1 mps 695 mmHg 74%
    18:00 +27°C° 1.2 mm 1 mps 695 mmHg 84%
    19:00 +26°C° 0.8 mm 1 mps 695 mmHg 87%
    20:00 +23°C° 0.8 mm 0 mps 695 mmHg 89%
    21:00 +22°C° 0.8 mm 0 mps 696 mmHg 92%
    22:00 +21°C° 0 mm 0 mps 696 mmHg 93%
    23:00 +21°C° 0 mm 0 mps 696 mmHg 94%

    23 January, Wednesday

    Time Temperature Precipitation Wind Pressure Humidity
    00:00 +21°C° 0 mm 0 mps 695 mmHg 96%
    01:00 +20°C° 0 mm 0 mps 695 mmHg 96%
    02:00 +20°C° 0 mm 0 mps 695 mmHg 97%
    03:00 +20°C° 0 mm 0 mps 694 mmHg 97%
    04:00 +20°C° 0 mm 0 mps 695 mmHg 97%
    05:00 +20°C° 0 mm 0 mps 695 mmHg 97%
    06:00 +19°C° 0 mm 0 mps 695 mmHg 97%
    07:00 +22°C° 0 mm 0 mps 696 mmHg 87%
    08:00 +25°C° 0 mm 0 mps 697 mmHg 76%
    09:00 +28°C° 0 mm 0 mps 697 mmHg 66%
    10:00 +30°C° 0 mm 0 mps 697 mmHg 57%
    11:00 +34°C° 0 mm 1 mps 697 mmHg 48%
    12:00 +36°C° 0 mm 1 mps 697 mmHg 39%
    13:00 +35°C° 0 mm 1 mps 696 mmHg 43%
    14:00 +34°C° 0 mm 1 mps 696 mmHg 47%
    15:00 +33°C° 0 mm 1 mps 695 mmHg 51%
    16:00 +31°C° 0.3 mm 1 mps 695 mmHg 58%
    17:00 +30°C° 0.3 mm 1 mps 695 mmHg 66%
    18:00 +28°C° 0.3 mm 1 mps 694 mmHg 73%
    19:00 +27°C° 2 mm 1 mps 695 mmHg 80%
    20:00 +25°C° 2 mm 1 mps 695 mmHg 86%
    21:00 +22°C° 2 mm 0 mps 695 mmHg 93%
    22:00 +22°C° 2 mm 0 mps 695 mmHg 94%
    23:00 +21°C° 2 mm 0 mps 695 mmHg 95%

    24 January, Thursday

    Time Temperature Precipitation Wind Pressure Humidity
    00:00 +21°C° 2 mm 0 mps 695 mmHg 96%
    01:00 +21°C° 0 mm 0 mps 694 mmHg 96%
    02:00 +21°C° 0 mm 0 mps 694 mmHg 96%
    03:00 +20°C° 0 mm 0 mps 693 mmHg 96%
    04:00 +20°C° 0 mm 0 mps 693 mmHg 97%
    05:00 +20°C° 0 mm 0 mps 694 mmHg 97%
    06:00 +20°C° 0 mm 0 mps 694 mmHg 97%
    07:00 +22°C° 0.2 mm 0 mps 695 mmHg 88%
    08:00 +24°C° 0.2 mm 0 mps 695 mmHg 79%
    09:00 +26°C° 0.2 mm 0 mps 696 mmHg 70%
    10:00 +29°C° 0.1 mm 0 mps 696 mmHg 60%
    11:00 +32°C° 0.1 mm 0 mps 696 mmHg 50%
    12:00 +35°C° 0.1 mm 0 mps 696 mmHg 40%
    13:00 +33°C° 0 mm 0 mps 695 mmHg 46%
    14:00 +32°C° 0 mm 0 mps 694 mmHg 51%
    15:00 +30°C° 0 mm 0 mps 693 mmHg 56%
    16:00 +30°C° 1.6 mm 1 mps 693 mmHg 66%
    17:00 +28°C° 1.6 mm 1 mps 693 mmHg 76%
    18:00 +27°C° 1.6 mm 2 mps 693 mmHg 87%
    19:00 +25°C° 1.5 mm 1 mps 694 mmHg 90%
    20:00 +24°C° 1.5 mm 1 mps 694 mmHg 93%
    21:00 +21°C° 1.5 mm 0 mps 695 mmHg 97%
    22:00 +23°C° 0.6 mm 1 mps 695 mmHg 97%
    23:00 +23°C° 0.6 mm 1 mps 695 mmHg 97%
    Show more